Terminal Aerodrome Forecast
Issued by NWS Portland, ME

Home | Current Version | Previous Version | Text Only | Print | Product List | Glossary On
Versions: 1 2 3 4 5 6 7 8 9 10 11 12 13 14 15 16 17 18 19 20 21 22 23 24 25 26 27 28
000
FTUS41 KGYX 311000 AAB
TAFCON
TAF AMD
KCON 311001Z 3110/0106 VRB03KT 1/4SM FG VV002
     FM311230 19004KT P6SM SCT250
     FM311700 20008KT P6SM BKN100
     FM312300 19008KT P6SM SCT050 BKN250
     FM010500 21005KT 5SM BR SCT250=

USA.gov is the U.S. government's official web portal to all federal, state and local government web resources and services.